Weather Roundup
Issued by NWS Corpus Christi, TX

Home | Current Version | Previous Version | Text Only | Print | Product List | Glossary On
Versions: 1 2 3 4 5 6 7 8 9 10 11 12 13 14 15 16 17 18 19 20 21 22 23 24 25 26 27 28 29 30 31 32 33 34 35 36 37 38 39 40 41 42 43 44 45 46 47 48 49 50
000
ASUS44 KCRP 262110
HRRCRP

SOUTH TEXAS REGIONAL WEATHER ROUNDUP
NATIONAL WEATHER SERVICE CORPUS CHRISTI TX
300 PM CST FRI DEC 26 2014


TXZ229>244-262200-
...CORPUS CHRISTI AREA OBSERVATIONS...

CITY           SKY/WX    TMP DP  RH WIND       PRES   REMARKS
CORPUS CHRISTI PTSUNNY   77  64  64 S22G28    29.86F
NAS CORPUS CHR MOSUNNY   74  66  76 S17G26    29.87F
ROCKPORT       MOSUNNY   73  64  73 S10G21    29.88S
KINGSVILLE NAS PTSUNNY   81  65  58 S16       29.84F
ALICE          PTSUNNY   80  61  52 SE17      29.83F
FALFURRIAS     MOSUNNY   81  61  49 SE12      29.83F
$$

...VICTORIA AREA OBSERVATIONS...

CITY           SKY/WX    TMP DP  RH WIND       PRES   REMARKS
VICTORIA       CLOUDY    75  66  73 S23       29.89F
BEEVILLE       FAIR      75  62  64 S13G23    29.85F
PLEASANTON     MOSUNNY   75  57  53 SE7       29.84F
SAN ANTONIO    PTSUNNY   71  57  61 S12       29.86F
$$

...LAREDO AREA OBSERVATIONS...

CITY           SKY/WX    TMP DP  RH WIND       PRES   REMARKS
LAREDO         NOT AVBL
COTULLA        MOSUNNY  N/A N/A N/A S7        29.83F
DEL RIO        SUNNY     70  45  40 SE10      29.80F
MCALLEN        SUNNY     81  58  45 S9        29.83F
HEBBRONVILLE   CLOUDY    76  55  47 S7        29.84F HAZE
$$

...OTHER TEXAS OBSERVATIONS...

CITY           SKY/WX    TMP DP  RH WIND       PRES   REMARKS
BROWNSVILLE    MOSUNNY   77  63  61 S29G37    29.87F
HOUSTON        LGT RAIN  71  62  73 S10       29.94F
COL. STATION   CLOUDY    65  64  97 SE8       29.92S
AUSTIN         PTSUNNY   74  60  61 S16G28    29.85F
WACO           CLOUDY    67  60  78 S12       29.87F
FORT WORTH     PTSUNNY   63  59  87 SE14      29.86S
WICHITA FALLS  MOSUNNY   64  47  53 S9        29.82F
LUBBOCK        PTSUNNY   48  28  46 CALM      29.86S
EL PASO        PTSUNNY   40  35  83 S6        29.91F
$$

...MARINE OBSERVATIONS...

STATION/POSITION TIME  SKY/WX   TEMP    WIND        PRES    VSBY  WAVE   SWELL
                                AIR SEA DIR/SP/G                  HT/PER HT/PER
                 (UTC)          (F)     (DEG/KT/KT) (MB)    (MI)  (FT/S) (FT/S)
PORT ARANSAS     2100            66 62  130/ 13/ 14 1012.2F
BUOY 90 E PORT A 2100            72 72  150/ 19/ 23 1013.7R         8/ 8
BUOY 45 SE BAFFI 2100            71 72  190/ 14/ 16 1011.9F         7/ 8   5/ 8
BUOY 200 E PT IS 2100            74 74  150/ 16/ 19 1014.8S         5/ 6
BUOY 15 E GALVES 2100            65 61  140/ 12/ 14 1014.3R         5/ 7   3/ 7
$$


USA.gov is the U.S. government's official web portal to all federal, state and local government web resources and services.